| time (UTC) | temp C | wind direction | speed KPH | gust KPH | rain 1hr cm | rain 24hr cm | rain mn cm | humidity % | barometer mb |
| 20260504081010 | 17 | 120 | 4.8 | 11.3 | 0.00 | 0.05 | 0.00 | 77 | 1013.4 |
| 20260504045012 | 13 | 339 | 3.2 | 6.4 | 0.00 | 0.05 | 0.00 | 85 | 1013.3 |
| 20260504044012 | 13 | 338 | 3.2 | 6.4 | 0.00 | 0.05 | 0.00 | 85 | 1013.4 |
| 20260504043011 | 13 | 338 | 3.2 | 4.8 | 0.00 | 0.05 | 0.00 | 85 | 1013.6 |
| 20260504041011 | 13 | 338 | 1.6 | 3.2 | 0.00 | 0.05 | 0.00 | 85 | 1013.5 |
| 20260504040016 | 13 | 338 | 0.0 | 3.2 | 0.00 | 0.05 | 0.00 | 85 | 1013.5 |
| 20260504035012 | 13 | 338 | 1.6 | 4.8 | 0.00 | 0.05 | 0.00 | 85 | 1013.8 |
| 20260504034010 | 13 | 338 | 1.6 | 4.8 | 0.00 | 0.05 | 0.00 | 85 | 1013.8 |
| 20260504032012 | 13 | 338 | 3.2 | 6.4 | 0.00 | 0.05 | 0.00 | 85 | 1014.0 |
| 20260504031011 | 13 | 338 | 3.2 | 6.4 | 0.00 | 0.05 | 0.00 | 85 | 1014.1 |
| 20260504030011 | 13 | 338 | 3.2 | 6.4 | 0.00 | 0.05 | 0.00 | 85 | 1013.9 |
| 20260504025015 | 13 | 338 | 3.2 | 8.0 | 0.00 | 0.05 | 0.00 | 85 | 1014.0 |
| 20260504024010 | 13 | 339 | 3.2 | 8.0 | 0.00 | 0.05 | 0.00 | 85 | 1014.0 |
| 20260504023010 | 13 | 337 | 4.8 | 8.0 | 0.00 | 0.05 | 0.00 | 85 | 1013.9 |
| 20260504022011 | 13 | 334 | 6.4 | 11.3 | 0.00 | 0.05 | 0.00 | 85 | 1013.9 |
| 20260504021011 | 13 | 354 | 3.2 | 8.0 | 0.00 | 0.05 | 0.00 | 85 | 1013.9 |
| 20260504020013 | 13 | 355 | 3.2 | 6.4 | 0.00 | 0.05 | 0.00 | 84 | 1013.8 |
| 20260504015011 | 13 | 356 | 3.2 | 6.4 | 0.00 | 0.05 | 0.00 | 84 | 1013.8 |
| 20260504013011 | 13 | 356 | 3.2 | 4.8 | 0.00 | 0.05 | 0.00 | 85 | 1014.1 |
| 20260504012014 | 13 | 355 | 3.2 | 4.8 | 0.00 | 0.05 | 0.00 | 84 | 1014.4 |
| 20260504010012 | 13 | 355 | 3.2 | 4.8 | 0.00 | 0.05 | 0.00 | 84 | 1014.4 |
| 20260504005012 | 13 | 356 | 3.2 | 4.8 | 0.00 | 0.05 | 0.00 | 84 | 1014.4 |
| 20260504004011 | 13 | 354 | 4.8 | 6.4 | 0.00 | 0.05 | 0.00 | 84 | 1014.5 |
| 20260504003012 | 13 | 324 | 3.2 | 6.4 | 0.00 | 0.05 | 0.00 | 84 | 1014.7 |
| 20260504001011 | 13 | 30 | 4.8 | 6.4 | 0.00 | 0.05 | 0.00 | 83 | 1014.7 |
| 20260504000013 | 13 | 30 | 4.8 | 6.4 | 0.00 | 0.05 | 0.00 | 82 | 1014.6 |
| 20260503235013 | 13 | 31 | 3.2 | 6.4 | 0.00 | 0.05 | 0.05 | 82 | 1014.8 |
| 20260503234011 | 14 | 31 | 1.6 | 4.8 | 0.00 | 0.05 | 0.05 | 82 | 1014.7 |
| 20260503233011 | 14 | 30 | 3.2 | 6.4 | 0.00 | 0.05 | 0.05 | 82 | 1014.6 |
| 20260503230013 | 13 | 356 | 3.2 | 6.4 | 0.00 | 0.05 | 0.05 | 81 | 1015.0 |
| 20260503225010 | 13 | 44 | 3.2 | 6.4 | 0.00 | 0.05 | 0.05 | 81 | 1014.9 |
| 20260503224011 | 14 | 43 | 1.6 | 4.8 | 0.00 | 0.05 | 0.05 | 80 | 1014.9 |
| 20260503223011 | 14 | 44 | 0.0 | 3.2 | 0.00 | 0.05 | 0.05 | 80 | 1015.0 |
| 20260503222010 | 14 | 36 | 3.2 | 6.4 | 0.00 | 0.05 | 0.05 | 80 | 1015.1 |
| 20260503221011 | 14 | 38 | 3.2 | 8.0 | 0.00 | 0.05 | 0.05 | 80 | 1014.9 |
| 20260503220012 | 14 | 44 | 3.2 | 8.0 | 0.00 | 0.05 | 0.05 | 80 | 1015.0 |
| 20260503215011 | 14 | 26 | 1.6 | 4.8 | 0.00 | 0.05 | 0.05 | 79 | 1014.8 |
| 20260503214011 | 14 | 27 | 0.0 | 3.2 | 0.00 | 0.05 | 0.05 | 79 | 1014.7 |
| 20260503213016 | 14 | 27 | 3.2 | 4.8 | 0.00 | 0.05 | 0.05 | 79 | 1014.7 |
| 20260503212012 | 14 | 18 | 3.2 | 8.0 | 0.00 | 0.05 | 0.05 | 79 | 1014.7 |
| 20260503211010 | 14 | 8 | 3.2 | 6.4 | 0.00 | 0.05 | 0.05 | 78 | 1014.7 |
| 20260503210012 | 14 | 9 | 1.6 | 4.8 | 0.00 | 0.05 | 0.05 | 78 | 1014.9 |
| 20260503204011 | 14 | 37 | 4.8 | 11.3 | 0.00 | 0.05 | 0.05 | 78 | 1014.8 |
| 20260503203011 | 14 | 35 | 4.8 | 8.0 | 0.00 | 0.05 | 0.05 | 77 | 1015.0 |
| 20260503202012 | 14 | 52 | 3.2 | 8.0 | 0.00 | 0.05 | 0.05 | 77 | 1015.1 |
| 20260503201010 | 14 | 57 | 3.2 | 8.0 | 0.00 | 0.05 | 0.05 | 77 | 1015.1 |
| 20260503200012 | 14 | 59 | 4.8 | 8.0 | 0.00 | 0.05 | 0.05 | 77 | 1015.2 |
| 20260503195010 | 15 | 66 | 0.0 | 6.4 | 0.00 | 0.05 | 0.05 | 77 | 1015.2 |
| 20260503193012 | 15 | 72 | 4.8 | 8.0 | 0.00 | 0.05 | 0.05 | 77 | 1014.8 |
| 20260503192013 | 15 | 110 | 3.2 | 6.4 | 0.00 | 0.05 | 0.05 | 76 | 1014.9 |
| 20260503191012 | 15 | 137 | 1.6 | 4.8 | 0.00 | 0.05 | 0.05 | 77 | 1015.0 |
| 20260503190015 | 15 | 137 | 3.2 | 6.4 | 0.00 | 0.05 | 0.05 | 76 | 1014.8 |
| 20260503185015 | 15 | 137 | 3.2 | 4.8 | 0.00 | 0.05 | 0.05 | 76 | 1014.8 |
| 20260503184012 | 15 | 138 | 3.2 | 4.8 | 0.00 | 0.05 | 0.05 | 77 | 1014.9 |
| 20260503183012 | 14 | 138 | 3.2 | 9.7 | 0.00 | 0.05 | 0.05 | 77 | 1014.9 |
| 20260503182012 | 15 | 126 | 4.8 | 9.7 | 0.00 | 0.05 | 0.05 | 79 | 1014.8 |
| 20260503181014 | 15 | 134 | 6.4 | 16.1 | 0.00 | 0.05 | 0.05 | 81 | 1015.0 |
| 20260503180014 | 15 | 142 | 6.4 | 14.5 | 0.00 | 0.05 | 0.05 | 82 | 1014.9 |
| 20260503175011 | 15 | 141 | 9.7 | 16.1 | 0.00 | 0.05 | 0.05 | 82 | 1014.9 |
| 20260503174013 | 15 | 132 | 8.0 | 17.7 | 0.00 | 0.05 | 0.05 | 82 | 1014.8 |
| 20260503172014 | 15 | 137 | 6.4 | 14.5 | 0.00 | 0.05 | 0.05 | 81 | 1014.7 |
| 20260503171013 | 15 | 150 | 9.7 | 19.3 | 0.00 | 0.05 | 0.05 | 81 | 1014.9 |
| 20260503151009 | 16 | 147 | 11.3 | 24.1 | 0.00 | 0.05 | 0.05 | 77 | 1014.4 |
| 20260503131010 | 16 | 115 | 6.4 | 12.9 | 0.00 | 0.05 | 0.05 | 78 | 1015.8 |